CDT,Max TemperatureF,Mean TemperatureF,Min TemperatureF,Max Dew PointF,MeanDew PointF,Min DewpointF,Max Humidity, Mean Humidity, Min Humidity, Max Sea Level PressureIn, Mean Sea Level PressureIn, Min Sea Level PressureIn, Max VisibilityMiles, Mean VisibilityMiles, Min VisibilityMiles, Max Wind SpeedMPH, Mean Wind SpeedMPH, Max Gust SpeedMPH,PrecipitationIn, CloudCover, Events, WindDirDegrees
2013-9-1,91,82,73,77,72,68,100,81,46,29.94,29.87,29.83,10,9,4,12,2,18,0.00,1,Rain-Thunderstorm,100
2013-9-2,87,78,68,73,66,61,100,73,43,30.04,29.99,29.93,10,9,3,9,2,,0.00,1,,7
2013-9-3,87,74,60,68,63,55,100,74,33,30.10,30.05,30.01,10,9,3,6,1,,0.00,0,,33
2013-9-4,89,74,60,68,63,57,100,74,33,30.17,30.11,30.07,10,10,4,5,0,,0.00,0,,39
2013-9-5,89,76,62,68,63,59,100,71,36,30.21,30.15,30.11,10,10,10,7,0,,0.00,0,,67
2013-9-6,91,76,62,70,65,61,100,73,38,30.16,30.10,30.03,10,10,7,6,0,,0.00,0,,304
2013-9-7,95,80,66,72,66,63,100,68,34,30.07,30.01,29.95,10,10,7,8,1,,0.00,0,,216
2013-9-8,96,82,68,72,68,63,100,67,32,30.00,29.96,29.90,10,9,5,9,2,10,0.00,0,,222
2013-9-9,96,82,68,73,65,61,100,63,30,30.03,29.98,29.94,10,10,5,14,2,20,0.00,0,,197
2013-9-10,95,80,64,72,66,61,100,68,32,30.15,30.09,30.01,10,10,5,13,2,17,0.00,0,,213
2013-9-11,93,80,68,72,68,63,100,72,38,30.19,30.13,30.07,10,9,5,8,1,,0.00,0,,285
2013-9-12,91,80,69,73,70,66,100,76,43,30.13,30.08,30.03,10,8,2,13,2,16,0.00,0,,1
2013-9-13,84,72,60,70,54,46,88,54,28,30.12,30.07,30.02,10,10,10,9,3,,0.00,1,,47
2013-9-14,84,68,53,59,53,52,100,65,33,30.10,30.04,29.99,10,10,10,8,1,9,0.00,0,,95
2013-9-15,91,76,60,70,59,52,94,61,37,30.06,30.03,30.00,10,10,10,10,3,17,0.00,0,,189
2013-9-16,78,74,69,73,70,68,100,94,69,30.22,30.15,30.06,10,8,2,8,1,,0.00,4,Rain-Thunderstorm,53
2013-9-17,78,73,68,75,71,68,100,93,74,30.17,30.10,30.01,10,8,4,6,1,,0.00,2,Rain-Thunderstorm,90
2013-9-18,93,81,69,73,69,66,100,73,41,30.04,29.99,29.93,10,9,7,17,3,21,0.00,1,Rain,169
2013-9-19,93,82,71,75,68,64,100,68,44,30.00,29.95,29.87,10,10,2,18,7,23,0.00,1,Rain-Thunderstorm,190
2013-9-20,71,64,57,72,64,55,100,88,57,30.03,29.99,29.95,10,9,3,12,3,20,0.00,4,Rain-Thunderstorm,354
2013-9-21,77,64,50,61,53,48,100,77,36,30.06,30.00,29.94,10,9,0,8,1,,0.00,0,Fog,19
2013-9-22,78,63,48,59,51,45,100,73,32,30.01,29.94,29.88,10,10,7,7,1,,0.00,0,,138
2013-9-23,82,66,51,59,54,52,100,71,35,29.95,29.89,29.81,10,10,10,13,2,17,0.00,1,,151
2013-9-24,78,69,60,59,56,54,82,62,44,29.90,29.88,29.86,10,10,10,14,6,20,0.00,1,,247
2013-9-25,80,68,55,66,60,55,100,82,45,29.93,29.88,29.84,10,9,3,6,1,,0.00,0,,272
2013-9-26,89,74,59,66,60,55,100,69,31,29.95,29.90,29.86,10,10,7,10,3,,0.00,0,,139
2013-9-27,87,74,62,64,60,57,100,62,35,30.02,29.95,29.91,10,10,10,15,7,21,0.00,0,,140
2013-9-28,80,70,59,72,63,59,100,83,57,30.10,29.98,29.90,10,8,1,20,7,29,0.00,7,Rain-Thunderstorm,156
2013-9-29,77,66,55,61,56,50,100,82,41,30.11,30.04,29.96,10,8,0,7,1,,0.00,2,Fog,34
2013-9-30,82,68,55,70,61,55,100,82,45,29.97,29.91,29.86,10,7,0,12,2,,0.00,2,Fog,169